Terminal Aerodrome Forecast
Issued by NWS Portland, ME

Home | Current Version | Previous Version | Text Only | Print | Product List | Glossary On
Versions: 1 2 3 4 5 6 7 8 9 10 11 12 13 14 15 16 17 18 19 20 21 22
000
FTUS41 KGYX 190901 AAA
TAFCON
TAF AMD
KCON 190901Z 1909/2006 VRB03KT P6SM SKC
      TEMPO 1909/1911 2SM BR
     FM191300 35008KT P6SM SKC
     FM192100 VRB03KT P6SM SKC=

USA.gov is the U.S. government's official web portal to all federal, state and local government web resources and services.